Regional Weather Roundup
Issued by NWS Portland, ME

Home | Current Version | Previous Version | Text Only | Print | Product List | Glossary On
Versions: 1 2 3 4 5 6 7 8 9 10 11 12 13 14 15 16 17 18 19 20 21 22 23 24 25 26 27 28 29 30 31 32 33 34 35 36 37 38 39 40 41 42 43 44 45 46 47 48 49 50
000
ASUS41 KGYX 292210
RWRGYX
WEATHER ROUNDUP FOR MAINE AND NEW HAMPSHIRE
NATIONAL WEATHER SERVICE GRAY ME
600 PM EDT WED JUL 29 2015

MEZ002-005-006-010-012-015-018-020-021-024-026-027-029-292300-
MAINE

CITY           SKY/WX    TMP DP  RH WIND       PRES   REMARKS
PORTLAND       PTSUNNY   80  66  62 S9        29.86F
SANFORD        MOSUNNY   88  68  51 S5        29.87F HX  91
BAR HARBOR     SUNNY     77  66  69 S8        29.87S
WISCASSET      MOSUNNY   80  69  69 SW5       29.87F
ROCKLAND       MOSUNNY   72  64  78 CALM      29.86S
FRYEBURG       LGT RAIN  78  69  73 CALM      29.89R
LEWISTONAUBURN MOSUNNY   79  68  69 SE3       29.88S
AUGUSTA        PTSUNNY   78  68  71 VRB5      29.88S
WATERVILLE     MOSUNNY   79  66  65 S7        29.83S
BANGOR         PTSUNNY   85  67  54 S10       29.85F
GREENVILLE       N/A     80  59  48 N7        29.89F
MILLINOCKET    MOSUNNY   83  58  42 E7        29.88S
HOULTON        MOSUNNY   79  52  38 N12       29.88R
PRESQUE ISLE   MOSUNNY   77  54  44 N7        29.89S
FRENCHVILLE    MOSUNNY   74  56  53 NW7       29.91S
CARIBOU        SUNNY     78  54  43 NW7       29.88F
$$

NHZ002-005-008-009-011-012-014-292300-
NEW HAMPSHIRE

CITY           SKY/WX    TMP DP  RH WIND       PRES   REMARKS
PORTSMOUTH     PTSUNNY   86  68  55 SE9       29.84F
ROCHESTER      MOSUNNY   90  63  40 VRB5      29.86F HX  91
NASHUA         SUNNY     93  66  40 W5        29.87F HX  96
MANCHESTER     PTSUNNY   94  61  33 SW8       29.86F HX  94
CONCORD        SUNNY     93  61  34 W6        29.87F HX  93
LACONIA        SUNNY     90  63  40 W6        29.86F HX  90
PLYMOUTH       FAIR      88  73  60 CALM      29.88S HX  95
BERLIN         SUNNY     84  70  62 SW6       29.90F
WHITEFIELD     PTSUNNY   87  65  47 NW5       29.90F
JAFFREY        MOSUNNY   88  64  44 W5        29.94F
KEENE          SUNNY     88  66  48 SW8       29.90F HX  90
LEBANON        SUNNY     92  64  39 W9        29.88F HX  93
MT WASHINGTON  FOG       59  59 100 NW33        N/A  VSB 1/8
$$

VTZ005-007-008-292300-
VERMONT

CITY           SKY/WX    TMP DP  RH WIND       PRES   REMARKS
ST JOHNSBURY     N/A     89  63  41 MISG      29.87F HX  90
MONTPELIER     SUNNY     87  61  41 N3        29.95F
BURLINGTON     TSTM      76  69  79 W14       29.90R
$$

MAZ007-012-024-CTZ003-RIZ002-NYZ038-NYZ072-292300-
SOUTHERN NEW ENGLAND AND NY

CITY           SKY/WX    TMP DP  RH WIND       PRES   REMARKS
BOSTON         MOSUNNY   92  65  40 VRB6      29.87S HX  94
WORCESTER      SUNNY     86  64  47 W6        29.95S
NANTUCKET      PTSUNNY   77  71  82 SW9       29.93S
PROVIDENCE     MOSUNNY   88  68  51 SW10      29.90S HX  91
HARTFORD       MOSUNNY   92  65  40 W10       29.89S HX  94
ALBANY         MOSUNNY   91  64  40 S5        29.89F HX  92
NEW YORK CITY  PTSUNNY   92  65  40 S12G21    29.90F HX  94
$$

ANZ081-ANZ082-ANZ150-NHZ014-MEZ023>029-292300-
COASTAL MARINE OBSERVATIONS

STATION/POSITION TIME  TEMP    WIND        PRES    WAVE
                       AIR SEA DIR/SP/G            HT/PER
                 (UTC) (F)     (DEG/KT/KT) (MB)    (FT/S)
MOUNT DESERT ROC 2200   68     190/  8/  8 1012.2R
MATINICUS ROCK   2100   67     210/ 17/ 18 1011.8F
ISLE OF SHOALS   2100   75     170/ 21/ 21 1011.0F
JEFFREYS LEDGE   2103      65                N/A     2/ 9
CASHES LEDGE BUO 2150   71                 1011.8F   3/ 8
GEORGES BANK BUO 2150   67 67  280/  6/  8 1013.0F   4/ 9
$$

.............KEY..............
   WCI - WIND CHILL
   TC  - TEMPERATURE IN CELSIUS
   VSB - VISIBILITY IN MILES
   HX  - HEAT INDEX
   FAIR- INDICATES FEW OR NO CLOUDS BELOW 12,000 FT, WITH NO
         SIGNIFICANT WEATHER AND/OR OBSTRUCTIONS TO VISIBILITY.




USA.gov is the U.S. government's official web portal to all federal, state and local government web resources and services.